Location: Newark
(35.0033°N, 81.0878°W)
Time: 11:10:41
(UTC+00:00)

Envisat - Pass Details

Date: 22 October 2020
Orbit: 764 x 766 km, 98.1° (Epoch: 03 December)

Event Time Altitude Azimuth Distance (km) Brightness Sun altitude
Rises 10:09:24 0° 34° (NE) 3,236 6.7 -18.5°
Reaches altitude 10° 10:12:39 10° 56° (NE) 2,304 6.3 -17.9°
Maximum altitude 10:15:40 16° 93° (E) 1,927 6.2 -17.3°
Drops below altitude 10° 10:18:40 10° 130° (SE) 2,294 6.2 -16.6°
Sets 10:21:53 0° 151° (SSE) 3,214 6.7 -16.0°
